{"data":{"norad_id":58797,"epoch":"2026-09-20T09:20:34.200672Z","epoch_age_seconds":162175,"freshness":"FRESH","line1":"1 58797U 24012L   26263.38928473 -.00000673  00000+0 -14916-4 0  9990","line2":"2 58797  43.0078 145.6106 0002100 263.6440  96.4172 15.27580304151013","mean_motion":15.27580304,"eccentricity":0.00021,"inclination_deg":43.0078,"raan_deg":145.6106,"arg_perigee_deg":263.644,"mean_anomaly_deg":96.4172,"bstar":-1.4916e-5,"rev_number":15101,"period_min":94.266729953858,"perigee_km":481.60733686543,"apogee_km":484.48903464345,"semimajor_km":6861.1851857544,"source":"CELESTRAK","updated_at":"2026-09-21T09:00:33.980569Z"}}